Regional Weather Roundup
Issued by NWS

Home | Current Version | Previous Version | Text Only | Print | Product List | Glossary On
Versions: 1 2 3 4 5 6 7 8 9 10 11 12 13 14 15 16 17 18 19 20 21 22 23 24 25 26 27 28 29 30 31 32 33 34 35 36 37 38 39 40 41 42 43 44 45 46 47 48 49 50
270
ASUS44 KFWD 291001
RWRTX
NORTH TEXAS HOURLY WEATHER ROUNDUP
NATIONAL WEATHER SERVICE FORT WORTH TX
500 AM CDT FRI JUL 29 2016

NOTE: "FAIR" INDICATES FEW OR NO CLOUDS BELOW 12,000 FEET WITH NO
SIGNIFICANT WEATHER AND/OR OBSTRUCTIONS TO VISIBILITY.

TXZ118-119-291100-
DALLAS/FORT WORTH METROPLEX

CITY           SKY/WX    TMP DP  RH WIND       PRES   REMARKS
DFW AIRPORT    PTCLDY    78  71  79 S9        29.94F
DALLAS LOVE    MOCLDY    79  71  76 S8        29.95F
FTW MEACHAM    PTCLDY    80  70  71 S10       29.95S
DAL-EXECUTIVE  CLEAR     76  70  82 SE3       29.96S
FTW-ALLIANCE   PTCLDY    75  70  84 S3        29.94F
FTW-NAS-JRB    PTCLDY    79  69  71 S8        29.95S
FTW-SPINKS     MOCLDY    76  72  85 S5        29.97S
ARLINGTON      PTCLDY    76  72  87 S7        29.95F
GRAND PRAIRIE  CLOUDY    77  70  79 S7        29.97S
ADDISON        PTCLDY    79  73  81 S7        29.97S
MESQUITE       PTCLDY    74  73  95 S5        29.97S
LANCASTER      CLEAR     76  71  86 CALM      29.97S
$$

TXZ091>094-102>105-117-120-121-131>134-291100-
NORTH CENTRAL TEXAS

CITY           SKY/WX    TMP DP  RH WIND       PRES   REMARKS
SHRMAN/DENISON NOT AVBL
BOWIE          CLEAR     73  71  93 SE3       29.95S
BRIDGEPORT     CLEAR     73  73 100 CALM      29.95S
DECATUR        CLEAR     77  68  74 S9        29.95S
DENTON         CLEAR     76  71  85 S6        29.94F
MCKINNEY       CLEAR     75  72  90 S7        29.95F
GREENVILLE     CLOUDY    77  70  78 S7        29.97S
ROCKWALL       PTCLDY    76  72  86 S15       29.96S
TERRELL        CLOUDY    76  71  85 S8        29.98R
WAXAHACHIE     CLOUDY    74  73  98 SE6       29.98S
CLEBURNE       PTCLDY    77  75  94 S8        29.98S
GRANBURY       CLOUDY    78  71  78 CALM      29.98R
$$

TXZ083>090-098>101-113>116-127>130-139>142-154-155-291100-
WESTERN NORTH TEXAS

CITY           SKY/WX    TMP DP  RH WIND       PRES   REMARKS
WICHITA FALLS  CLEAR     73  69  87 S6        29.92S
WF-KICKAPOO    CLEAR     76  70  80 S5        29.93S
VERNON         CLEAR     76  64  68 CALM      29.94S
ABILENE        CLEAR     77  66  68 SW9       29.99S
ABILENE-DYESS  CLEAR     77  66  69 S6        29.97S
CISCO          PTCLDY    75  68  78 S8        30.00S HAZE
GRAHAM         CLEAR     76  71  83 S5        29.94S
MINERAL WELLS  PTCLDY    74  71  91 SE10      29.94F
STEPHENVILLE   CLOUDY    75  67  76 S5        30.02R
COMANCHE       MOCLDY    76  68  76 SW8       30.00S
BROWNWOOD      CLOUDY    73  68  83 SE5       30.01S
COLEMAN        CLEAR     74  66  78 CALM      30.02R
$$

TXZ143>147-156>162-174-175-291100-
CENTRAL TEXAS

CITY           SKY/WX    TMP DP  RH WIND       PRES   REMARKS
WACO           CLOUDY    77  71  82 S12       29.97F
WACO-MCGREGOR  PTCLDY    74  72  93 S7        29.98F
HILLSBORO      CLOUDY    76  71  86 S8        29.98S
CORSICANA      CLOUDY    76  71  85 S8        29.99S
MEXIA          CLOUDY    73  73  97 S6        29.98S
HEARNE         CLOUDY    73  73  98 CALM      30.00F
CAMERON        MOCLDY    75  73  92 CALM      29.99F
TEMPLE         PTCLDY    75  72  90 S7        29.99F
KILLEEN        MOCLDY    74  69  83 S6        29.99F
KILLEEN-SKYLRK CLOUDY    76  71  85 S7        30.00S
FORT HOOD      CLEAR     75  69  81 S6        29.98S
HAMILTON       CLOUDY    74  67  80 CALM      30.01S
$$

TXZ095>097-106>112-122>126-135>138-148>153-164>167-291100-
EAST TEXAS

CITY           SKY/WX    TMP DP  RH WIND       PRES   REMARKS
PARIS          PTCLDY    73  64  73 SE9       29.97F
SULPHUR SPRNGS CLOUDY    77  71  82 S8        29.99S
MOUNT PLEASANT PTCLDY    73  73 100 CALM      30.00F
GILMER         CLEAR     73  72  97 CALM      29.99S
MINEOLA        MOCLDY    75  72  88 CALM      29.99S
TYLER          CLOUDY    75  72  90 S8        29.99S
LONGVIEW       PTCLDY    73  73 100 CALM      29.99S
MARSHALL       CLOUDY    70  68  93 S5        30.01F
ATHENS         CLOUDY    73  73 100 S3        29.97F
PALESTINE      CLOUDY    75  74  97 CALM      30.00F
JACKSONVILLE     N/A     73  73 100 S5        30.03S
HENDERSON      CLOUDY    73  73 100 CALM      30.02R
CENTER         CLOUDY    74  73  95 S3        30.02S
NACOGDOCHES    CLOUDY   N/A N/A N/A SE3       30.00R
LUFKIN         CLOUDY    72  71  97 CALM      30.01R
$$

SUPPLEMENTAL OBSERVATIONS (CENTRAL)

CITY           SKY/WX    TMP DP  RH WIND       PRES   REMARKS
$$

SUPPLEMENTAL OBSERVATIONS (WEST)

CITY           SKY/WX    TMP DP  RH WIND       PRES   REMARKS
$$

SUPPLEMENTAL OBSERVATIONS (EAST)

CITY           SKY/WX    TMP DP  RH WIND       PRES   REMARKS
$$

SUPPLEMENTAL OBSERVATIONS ARE A COLLECTION OF AUTOMATED INSTRUMENTS
THAT ARE MAINTAINED BY A VARIETY OF FEDERAL AND STATE AGENCIES.
CERTAIN ELEMENTS...SUCH AS HUMIDITY VALUES AND SUSTAINED WIND
SPEEDS...MAY BE APPROXIMATED.





USA.gov is the U.S. government's official web portal to all federal, state and local government web resources and services.